SCP
0 1 1 1 0 0 0 0 0 0 1 1 1 1 1 1 1 0 0 0 0 0 0 0 0 0 0 0 0 0 0 0 0 0 0 0 0 0 0 0 0 0 0
0 1 1 1 1 0 0 0 0 1 1 1 1 1 1 1 1 1 0 0 0 0 0 0 0 0 0 0 0 0 0 0 0 0 0 0 0 0 0 0 0 0 0
0 1 1 1 1 1 0 0 1 1 1 1 1 1 1 1 1 1 1 1 0 0 0 0 0 0 0 0 0 0 0 0 0 0 0 0 0 0 0 0 0 0 0
0 1 1 1 1 1 1 1 1 1 1 1 1 1 1 1 1 1 1 1 1 0 0 0 0 0 0 0 0 0 0 0 0 0 0 0 0 0 0 0 0 0 0
0 1 1 1 1 1 1 1 1 1 1 1 1 1 1 1 1 1 1 1 1 1 0 0 0 0 0 0 0 0 0 0 0 0 0 0 0 0 0 0 0 0 0
0 1 1 1 1 1 1 1 1 1 1 1 1 1 1 1 1 1 1 1 1 1 1 0 0 0 0 0 0 0 0 0 0 0 0 0 0 0 0 0 0 0 0
0 1 1 1 1 1 1 1 1 1 1 1 1 1 1 1 1 1 1 1 1 1 1 0 0 0 0 0 0 0 0 0 0 0 0 0 0 0 0 0 0 0 0
1 1 1 1 1 1 1 1 1 1 1 1 1 1 1 1 1 1 1 1 1 1 1 1 1 0 0 0 0 0 0 0 0 0 0 0 0 1 0 0 0 0 0
1 1 1 1 1 1 1 1 1 1 1 1 1 1 1 1 1 1 1 1 1 1 1 1 1 1 1 0 0 0 0 0 0 0 0 0 1 1 0 0 0 0 0
1 1 1 1 1 1 1 1 1 1 1 1 1 1 1 1 1 1 1 1 1 1 1 1 1 1 1 1 0 0 0 0 0 0 0 1 1 1 0 0 0 0 0
1 1 1 1 1 1 1 1 1 1 1 1 1 1 1 1 1 1 1 1 1 1 1 0 0 0 0 0 0 0 0 0 0 0 0 1 1 1 0 0 0 0 0
1 1 1 1 1 1 1 1 1 1 1 1 1 1 1 1 1 1 1 1 1 1 0 0 0 0 0 0 1 1 0 0 0 0 1 1 1 0 0 0 0 0 0
1 1 1 1 1 1 1 1 1 1 1 1 1 1 1 1 1 1 1 1 1 1 1 1 1 1 0 1 1 1 0 0 0 0 1 1 1 0 0 0 0 0 0
1 1 1 1 1 1 1 1 1 1 1 1 1 1 1 1 1 1 1 1 1 1 1 1 1 1 1 1 0 0 0 0 0 0 0 1 1 0 0 0 0 0 0
1 1 1 1 1 1 1 1 1 1 1 1 1 1 1 1 1 1 1 1 1 1 1 1 1 1 1 0 0 0 0 0 0 0 0 1 1 0 0 0 0 0 0
1 1 1 1 1 1 1 1 1 1 1 1 1 1 1 1 1 1 1 1 1 1 0 0 0 0 1 0 0 0 0 0 0 0 0 0 0 0 0 0 0 0 0
1 1 1 1 1 1 1 1 1 1 1 1 1 1 1 1 1 1 1 1 1 1 1 0 0 0 0 0 0 0 0 0 0 0 0 0 0 0 0 0 0 0 0
1 1 1 1 1 1 1 1 1 1 1 1 1 1 1 1 1 1 1 1 1 1 1 1 0 0 0 0 0 0 0 0 0 0 0 0 0 0 0 0 0 0 0
1 1 1 1 1 1 1 1 1 1 1 1 1 1 1 1 1 1 1 1 1 1 1 1 0 0 0 0 0 0 0 0 0 0 0 0 0 0 0 0 0 0 0
1 1 1 1 1 1 1 1 1 1 1 1 1 1 1 1 1 1 1 1 1 1 1 0 0 0 0 0 0 0 0 0 0 0 0 0 0 0 0 0 0 0 0
1 1 1 1 1 1 1 1 1 1 1 1 1 1 1 1 1 1 1 1 1 1 1 0 0 0 0 0 0 0 0 0 0 0 0 0 0 0 0 0 0 0 0
0 1 1 1 1 1 1 1 1 1 1 1 1 1 1 1 1 0 0 0 1 1 1 0 0 0 0 0 0 0 0 0 0 0 0 0 0 0 0 0 0 0 0
0 0 1 1 1 1 1 1 1 1 1 1 1 1 1 0 0 0 0 0 0 1 0 0 0 0 0 0 0 0 0 0 0 0 0 0 0 0 0 0 0 0 0
0 0 1 1 1 1 1 1 1 1 1 1 1 1 1 0 0 0 0 0 0 0 0 0 0 0 0 0 0 0 0 0 0 0 0 0 0 0 0 0 0 0 0
0 0 1 1 1 1 1 1 1 1 1 1 1 1 1 0 0 0 0 0 0 0 0 0 0 0 0 0 0 0 0 0 0 0 0 0 0 0 0 0 0 0 0
0 0 1 1 1 1 1 1 1 1 1 1 1 1 1 0 0 0 0 0 0 0 0 0 0 0 0 0 0 0 0 0 0 0 0 0 0 0 0 0 0 0 0
Wind_Speed
10 14 17 13 12 11 11 11 11 11 11 11 12 12 13 13 12 12 11 10 10 9 8 8 7 6 6 6 5 5 5 4 4 4 5 5 6 6 6 6 7 8 8
12 15 17 13 12 12 11 11 11 11 11 11 11 11 12 12 12 11 11 10 9 9 8 7 7 6 6 5 5 5 4 4 5 5 6 8 7 7 6 6 6 0 8
12 15 16 14 13 12 12 11 11 11 11 10 10 10 11 11 11 11 10 9 9 8 8 7 7 6 6 5 5 5 5 5 5 6 8 9 9 8 7 6 5 3 5
12 14 14 14 12 12 12 11 11 11 10 10 10 9 10 10 10 10 10 9 9 8 8 7 7 6 6 6 6 5 6 6 6 8 10 8 6 9 7 7 6 6 6
12 12 13 14 12 11 11 11 10 10 10 10 9 9 9 9 9 9 9 9 8 8 8 7 7 7 6 6 6 6 6 7 7 11 9 6 4 7 7 8 7 7 7
11 12 14 12 11 10 10 10 10 10 9 9 9 9 8 8 8 8 8 8 8 8 8 7 7 7 7 7 7 7 7 7 10 11 8 7 6 7 7 8 9 9 8
10 10 14 12 10 10 10 10 9 9 8 8 8 8 8 8 8 8 8 8 8 8 8 7 7 7 7 8 8 8 8 9 12 9 7 8 6 7 8 9 10 10 10
9 10 12 13 11 10 10 9 8 8 8 7 7 7 7 7 7 7 8 8 8 8 8 8 8 8 8 8 9 9 10 11 12 10 9 8 4 6 8 10 10 10 10
8 8 9 11 11 11 9 8 8 7 7 7 6 6 6 6 7 7 7 8 8 8 8 9 9 9 9 9 10 10 10 11 13 8 9 7 6 7 9 10 10 11 11
7 7 7 7 8 8 9 9 8 7 7 7 6 7 7 7 8 7 8 7 7 7 7 7 7 8 9 9 10 11 11 11 13 10 7 5 6 7 9 10 11 11 11
6 5 6 6 6 6 6 8 8 8 7 7 8 8 8 6 6 7 6 4 6 6 7 7 7 8 9 10 11 11 11 8 9 7 6 2 5 8 10 11 11 11 12
5 5 5 5 5 5 4 5 5 5 5 6 4 5 5 4 4 4 3 5 6 7 8 8 9 9 10 7 9 12 8 9 8 7 5 5 6 9 11 12 12 12 12
4 4 4 4 4 4 3 3 2 2 3 4 4 4 4 3 3 3 2 4 6 8 7 6 8 7 6 5 5 6 7 7 5 5 4 5 7 9 11 12 12 12 12
3 3 3 3 3 2 2 1 2 2 2 2 3 4 3 2 3 2 3 3 4 3 4 5 4 5 6 6 7 7 7 6 5 4 4 7 8 9 10 11 12 12 12
2 2 3 3 3 2 2 2 1 2 2 2 2 3 4 3 3 3 3 3 4 3 3 4 4 5 5 6 6 6 7 8 7 6 4 7 8 9 11 11 11 12 12
1 1 1 3 4 3 2 2 2 1 1 3 2 3 3 3 2 3 4 4 4 3 3 4 5 5 5 5 6 6 7 8 7 7 6 6 10 10 10 11 11 12 11
1 1 1 3 3 3 3 3 2 2 2 3 2 2 3 3 3 4 4 4 3 4 4 5 5 5 5 5 6 6 6 7 6 7 7 6 6 10 11 10 10 10 10
1 1 0 0 2 2 2 2 2 2 2 2 2 2 3 4 4 4 4 4 3 4 3 3 4 4 4 5 5 5 5 5 7 7 7 6 6 6 9 10 9 9 10
2 2 1 0 1 1 1 2 2 2 2 2 2 2 2 4 4 4 3 3 4 3 3 4 3 4 5 5 5 5 5 5 5 6 7 7 6 6 6 7 10 10 10
3 2 2 1 1 1 1 1 1 1 2 2 2 2 3 4 4 4 3 3 3 3 3 3 4 4 4 4 6 5 5 5 4 5 7 6 6 7 8 6 6 8 11
3 2 2 1 1 0 0 1 1 1 2 2 2 2 3 3 4 4 3 3 3 3 4 5 4 4 4 3 5 5 5 6 5 5 5 5 6 6 6 6 6 5 5
3 2 2 1 1 1 1 2 2 2 3 2 2 2 3 3 4 3 3 3 3 3 4 4 4 4 3 2 4 5 4 4 4 4 4 5 5 5 6 7 6 6 6
4 3 3 2 2 2 3 2 2 2 3 2 2 1 2 3 3 3 3 4 4 4 3 4 4 5 4 4 3 4 4 3 3 3 4 4 4 4 5 5 7 7 7
4 3 3 2 3 3 4 3 4 3 3 3 2 2 3 3 3 3 4 3 4 3 4 4 3 4 5 4 3 4 4 4 5 4 3 3 4 4 5 5 5 5 7
4 4 3 3 3 3 4 4 4 3 3 2 2 2 3 2 3 3 3 3 3 3 4 4 3 4 4 5 4 3 4 4 6 6 5 4 4 4 4 5 5 5 5
4 4 4 4 4 4 4 4 4 4 4 3 3 2 2 2 2 2 3 3 3 3 4 4 4 4 4 5 5 4 4 4 5 5 6 6 5 4 5 4 5 4 5
Wind_Direction
150 139 144 154 153 150 149 149 147 146 148 151 154 156 158 160 162 162 162 163 164 165 166 167 167 168 170 174 179 180 182 186 192 195 202 201 203 203 202 207 220 202 142
144 139 145 152 153 153 152 151 149 148 149 151 155 159 160 162 164 164 166 168 170 172 173 173 174 176 176 178 182 187 190 194 197 204 208 203 202 206 209 214 247 353 138
143 140 150 152 153 155 155 154 153 152 151 152 155 159 162 164 165 167 169 173 177 179 181 182 184 187 188 189 195 201 203 205 210 215 226 226 191 191 209 215 221 202 169
143 145 151 148 155 157 157 156 155 155 156 156 157 159 163 166 168 171 175 179 182 185 187 190 192 197 198 199 204 211 214 218 221 227 229 229 209 165 198 216 216 205 195
146 146 139 150 156 158 160 159 158 158 159 160 162 162 165 169 173 177 181 185 187 191 194 197 199 201 203 206 210 217 223 227 230 239 242 233 226 149 196 217 217 212 206
148 146 138 152 155 158 160 161 161 162 163 166 169 170 171 173 176 181 188 192 193 197 201 204 205 208 212 214 216 223 227 230 236 235 235 237 224 162 203 220 221 217 212
146 142 139 151 155 159 160 159 160 160 163 168 173 177 181 184 186 189 192 198 204 208 212 213 214 218 223 223 224 229 234 236 249 249 239 234 225 165 209 225 226 221 215
141 142 139 152 158 160 161 159 159 161 164 169 174 180 186 191 195 198 201 206 213 217 220 223 223 224 232 235 234 235 238 246 244 247 243 241 188 178 219 229 229 224 220
143 143 147 158 162 162 160 160 160 161 164 172 178 184 191 196 202 207 209 215 219 223 227 229 232 234 236 241 242 241 242 246 259 250 245 241 161 192 225 232 231 228 224
143 147 151 161 159 166 166 163 164 165 168 176 184 191 198 203 207 211 218 217 226 231 234 238 242 245 244 243 243 244 244 245 248 250 247 223 166 207 229 234 234 232 229
144 151 158 163 163 174 173 161 174 176 176 189 193 192 208 217 215 208 219 205 229 238 240 243 245 248 249 237 234 240 241 242 247 251 249 211 196 227 238 237 236 235 234
154 159 162 170 169 178 176 167 189 196 183 206 208 202 216 227 237 240 173 204 231 241 243 244 245 243 244 238 220 222 237 240 248 245 234 198 224 238 243 240 236 237 234
155 158 167 174 179 186 181 182 194 212 197 210 214 218 224 233 234 242 229 210 225 235 244 234 236 244 252 253 253 237 244 250 245 247 232 194 227 241 244 243 239 237 235
152 159 171 179 177 195 209 206 213 221 214 223 210 233 229 234 246 253 251 259 248 243 253 260 262 259 261 254 253 255 252 249 250 247 225 199 224 237 243 245 242 239 236
139 162 171 181 169 170 192 241 233 244 245 237 234 226 240 240 248 255 262 263 264 265 258 262 266 270 268 259 257 256 258 253 252 253 240 203 219 234 241 244 244 242 238
123 159 167 175 162 169 190 201 227 245 253 259 241 235 239 253 261 260 254 255 259 265 278 272 265 264 261 265 265 263 258 254 247 248 251 220 212 223 235 242 241 240 238
62 145 169 170 164 179 202 206 214 220 237 251 248 237 240 256 262 263 260 251 259 263 260 261 267 268 265 262 261 262 259 255 249 246 247 248 227 212 219 233 240 239 237
51 91 109 132 148 170 192 208 222 226 237 246 249 245 246 255 262 265 270 270 271 269 269 272 273 273 272 271 269 267 261 253 250 246 244 240 245 238 212 213 228 233 238
44 61 67 74 139 182 203 216 232 227 243 253 260 273 268 260 258 259 271 284 277 278 282 280 278 278 276 278 271 257 257 253 249 246 247 244 239 247 248 201 213 226 234
47 47 44 68 56 287 223 222 242 242 252 263 267 281 276 269 264 264 258 269 279 281 280 280 280 270 274 276 276 271 260 256 252 253 250 242 235 239 244 245 224 215 222
43 38 46 41 55 292 268 271 271 269 271 265 268 284 275 278 273 259 272 265 267 272 276 276 275 270 272 281 279 271 251 240 244 250 249 254 246 245 245 242 244 243 218
28 21 29 42 357 291 313 285 278 287 273 272 290 287 285 284 277 257 260 266 266 267 263 273 274 281 281 280 289 288 274 240 228 240 248 244 250 251 246 241 243 242 249
13 4 11 0 323 314 301 289 300 280 272 274 287 282 290 283 275 278 269 274 274 266 270 269 264 266 276 275 275 282 287 292 301 227 238 248 256 264 260 255 246 241 243
0 1 355 348 333 318 301 305 299 292 290 297 294 299 287 282 290 280 275 275 271 273 271 263 268 272 268 273 273 264 278 298 288 284 252 249 255 258 263 263 257 250 245
359 355 348 340 320 310 299 292 288 290 293 299 297 291 284 294 289 286 275 275 273 277 282 279 273 273 271 273 277 276 272 268 265 276 283 281 264 258 259 258 259 253 250
355 348 340 332 318 309 297 295 289 293 293 295 292 292 280 273 276 289 277 276 278 281 274 274 274 269 275 276 275 270 265 267 269 271 274 278 278 268 261 261 259 254 251